Regional Weather Roundup
Issued by NWS Little Rock, AR

Home | Current Version | Previous Version | Text Only | Print | Product List | Glossary On
Versions: 1 2 3 4 5 6 7 8 9 10 11 12 13 14 15 16 17 18 19 20 21 22 23 24 25 26 27 28 29 30 31 32 33 34 35 36 37 38 39 40 41 42 43 44 45 46 47 48 49 50
000
ASUS44 KLZK 201905
RWRLZK

WEATHER ROUNDUP FOR ARKANSAS
NATIONAL WEATHER SERVICE LITTLE ROCK AR
100 PM CST FRI JAN 20 2017

NOTE: "FAIR" INDICATES FEW OR NO CLOUDS BELOW 12,000 FEET WITH NO
SIGNIFICANT WEATHER AND/OR OBSTRUCTIONS TO VISIBILITY.

ARZ001-003-010-029-202000-
NORTHWEST ARKANSAS

CITY           SKY/WX    TMP DP  RH WIND       PRES   REMARKS
FAYETTEVILLE   SUNNY     63  46  54 S21G28    29.52F
FORT SMITH     SUNNY     68  43  40 S10       29.54F
HARRISON       SUNNY     64  46  52 S14G21    29.54F
BENTONVILLE    SUNNY    N/A N/A N/A SW17G24   29.51F
ROGERS         SUNNY     63  44  50 S22G32    29.51F
SILOAM SPGS    SUNNY     63  45  51 S23G29    29.51F
HIGHFILL       LGT RAIN  62  45  53 SW22G31   29.50F
SPRINGDALE     SUNNY     63  45  51 S21G30    29.54F
$$

ARZ004-005-016-202000-
NORTH CENTRAL ARKANSAS

CITY           SKY/WX    TMP DP  RH WIND       PRES   REMARKS
BATESVILLE     PTSUNNY   63  52  67 S15G21    29.61F
FLIPPIN        SUNNY     64  46  52 S12G18    29.53F
MTN HOME       MOSUNNY   62  49  62 SW9G20    29.54F
$$

ARZ040-041-202000-
WEST CENTRAL ARKANSAS

CITY           SKY/WX    TMP DP  RH WIND       PRES   REMARKS
MENA           MOSUNNY   66  48  52 SW8G17    29.60F
MOUNT IDA      SUNNY     66  47  50 MISG      29.58F
$$

ARZ009-017-025-026-028-202000-
NORTHEAST ARKANSAS

CITY           SKY/WX    TMP DP  RH WIND       PRES   REMARKS
CORNING        CLOUDY    61  57  88 S18       29.62F
JONESBORO      CLOUDY    61  54  77 SW21G26   29.63F
NEWPORT        CLOUDY    64  55  72 S28       29.60F
WALNUT RIDGE   CLOUDY    61  54  77 S16       29.61F
BLYTHEVILLE    CLOUDY    62  54  74 S15G21    29.66F
NW BLYTHEVILLE PTSUNNY   64  54  68 S21G29    29.65F
$$

ARZ022-023-033-042-044-202000-
CENTRAL ARKANSAS

CITY           SKY/WX    TMP DP  RH WIND       PRES   REMARKS
LITTLE ROCK    PTSUNNY   66  53  63 S14       29.62F
JACKSONVILLE   SUNNY     66  56  70 S10G18    29.60F
SEARCY         PTSUNNY   66  56  70 S15G22    29.63F
HOT SPRINGS    SUNNY     66  52  60 SW9G18    29.63F
RUSSELLVILLE   SUNNY     67  49  52 S13G20    29.58F
CLINTON        PTSUNNY   64  54  68 S10G20    29.59F
$$

ARZ036-202000-
EAST ARKANSAS

CITY           SKY/WX    TMP DP  RH WIND       PRES   REMARKS
WEST MEMPHIS   CLOUDY    62  56  80 S13G22    29.67F
$$

ARZ050-053-066-070-073-202000-
SOUTHWEST ARKANSAS

CITY           SKY/WX    TMP DP  RH WIND       PRES   REMARKS
ARKADELPHIA    FAIR      66  54  65 SW16      29.65F
CAMDEN         SUNNY     73  46  38 SW15G21   29.67F
TEXARKANA      MOSUNNY   68  48  48 SW16G26   29.67F
EL DORADO      SUNNY     70  49  47 SW16G25   29.69F
DE QUEEN       SUNNY     67  45  45 SW16G22   29.62F
$$

ARZ056-057-069-202000-
SOUTHEAST ARKANSAS

CITY           SKY/WX    TMP DP  RH WIND       PRES   REMARKS
PINE BLUFF     SUNNY     67  54  63 SW16G23   29.65F
STUTTGART      MOSUNNY   66  52  59 S20       29.65F
MONTICELLO     SUNNY     70  54  56 S16G22    29.67F

$$





USA.gov is the U.S. government's official web portal to all federal, state and local government web resources and services.